DECAYED

STARLINK-1760, 46341 (Decayed)

Orbit data source: Space-Track

STARLINK-1760, 46341 was a payload satellite owned by SpaceX/Seattle (US) in LEO that was launched on Thu, 03 Sep 2020 UTC via an FALCON 9 launch vehicle from the Air Force Eastern Test Range (AFETR). Payload-class satellites include a variety of spacecraft equipped with specific instruments for various scientific and technological missions. These include communications satellites like Starlink; space stations such as the ISS; scientific satellites like the Hubble; Earth observation satellites from companies like Planet Labs, Umbra, and HawkEye 360; GPS; miniature CubeSats for education and research; and military/defense satellites.

Not visible in the next 10 days
Identifier
46341, 2020-062S
Orbit
Decayed
Country
Flag of USUS
Related business
Manufacturer
SpaceX/Seattle
Mission
Decayed Commercial Communications
Bus & Motor
STARLINK, Unknown motor
Mass
260 kg wet, ~248 kg dry
Launch date (UTC)
2020-09-03 (6 years ago)
Launch vehicle
FALCON 9
Launch site
Air Force Eastern Test Range (AFETR)
Object type
Payload
Rocket body
Debris
Shape & HBR
Box + 1 Pan, 10.1 m
Radar Cross Section
13.562 m², Large (>1 m²)

Expand to show TLE details & history
Last TLE update: 2 years ago

TLE from 2 years ago
0 STARLINK-1760
1 46341U 20062S   25043.07254750  .14226997  12447-4  46978-3 0  9991
2 46341  53.0286 271.0132 0005990 248.9383 285.1947 16.44382374246314
Epoch: 2025-02-12T01:44Z
TLE epoch observation values (Epoch: 2025-02-12T01:44:28.103Z)
Latitude
4.68401°
Longitude
-80.98786°
Altitude
153.589 km
Speed
7.816 km/s
True Right ascension
05h 49m 59s
True Declination
4° 39' 13"
Sunlit
Object was in full shadow at epoch
Visualization orbit readout
Latitude
Unknown
Longitude
Unknown
Altitude
Unknown
Speed
Unknown
Apparent Right ascension
Unknown
Apparent Declination
Unknown
Sunlit
N/A
Visualization observer readout
Local Sidereal Time
22:42:43
Azimuth
Unknown
Elevation
Unknown
Doppler factor
Unknown
Orbital elements
Apogee altitude
158.375 km
Perigee altitude
150.549 km
Semi-major axis
6,532.599 km
Eccentricity
0.0006
Inclination
53.0286°
RAAN
271.0132°
Arg. of periapsis
248.9383°
True anomaly
285.12845°
Mean anomaly
285.1947°
Eccentric anomaly
285.16157°
Mean motion
4.11069 °/min
Orbital period
87.58 mins
BSTAR
0.00046978
Loading maneuver chart data...
Computing Atmospheric mass density...

Documentation

Showing up to 5 results
|